This is the latest recevied weather packets stored in our database for station/object SV2LPQ-2. If no packets are shown the sender has not sent any weather packets the latest 1 day(s).
| Time | Temp. | Humidity | Pressure | Rain* | Wind** | Luminosity | Snow |
|---|---|---|---|---|---|---|---|
| 1778008574 | 17.78° C | 50% | 1042.5 hPa | 0 mm | 0 m/s | - | - |
| 1778008074 | 17.78° C | 51% | 1042.5 hPa | 0 mm | 0.45 m/s, 182° | - | - |
| 1778007574 | 17.78° C | 51% | 1042.5 hPa | 0 mm | 0 m/s | - | - |
| 1778007074 | 17.78° C | 49% | 1042.5 hPa | 0 mm | 0 m/s | - | - |
| 1778006574 | 18.33° C | 48% | 1042.5 hPa | 0 mm | 0 m/s | - | - |
| 1778006074 | 18.33° C | 48% | 1042.5 hPa | 0 mm | 0 m/s | - | - |
| 1778005574 | 18.33° C | 47% | 1042.5 hPa | 0 mm | 0 m/s | - | - |
| 1778005074 | 18.89° C | 47% | 1042.5 hPa | 0 mm | 0 m/s | - | - |
| 1778004574 | 18.89° C | 47% | 1042.5 hPa | 0 mm | 0.45 m/s, 147° | - | - |
| 1778004074 | 18.89° C | 46% | 1042.5 hPa | 0 mm | 0.89 m/s, 158° | - | - |
| 1778003574 | 19.44° C | 45% | 1042.5 hPa | 0 mm | 0 m/s | - | - |
| 1778003074 | 19.44° C | 45% | 1042.5 hPa | 0 mm | 0.45 m/s, 128° | - | - |
| 1778002574 | 20° C | 44% | 1042.5 hPa | 0 mm | 2.24 m/s, 157° | - | - |
| 1778002074 | 20° C | 44% | 1042.5 hPa | 0 mm | 2.68 m/s, 127° | - | - |
| 1778001574 | 20.56° C | 44% | 1042.5 hPa | 0 mm | 3.58 m/s, 147° | - | - |
| 1778001074 | 20.56° C | 44% | 1042.5 hPa | 0 mm | 1.34 m/s, 142° | - | - |
| 1778000574 | 21.11° C | 44% | 1042.5 hPa | 0 mm | 2.68 m/s, 147° | - | - |
| 1778000074 | 21.11° C | 45% | 1042.5 hPa | 0 mm | 2.24 m/s, 158° | - | - |
| 1777999574 | 21.11° C | 44% | 1042.5 hPa | 0 mm | 2.68 m/s, 147° | - | - |
| 1777999074 | 21.67° C | 44% | 1042.5 hPa | 0 mm | 3.13 m/s, 156° | - | - |
| 1777998574 | 21.67° C | 44% | 1042.5 hPa | 0 mm | 3.58 m/s, 169° | - | - |
| 1777998074 | 22.22° C | 44% | 1042.5 hPa | 0 mm | 3.58 m/s, 135° | - | - |
| 1777997574 | 22.78° C | 44% | 1042.5 hPa | 0 mm | 4.02 m/s, 152° | - | - |
| 1777997074 | 22.78° C | 43% | 1042.5 hPa | 0 mm | 3.58 m/s, 142° | - | - |
| 1777996574 | 23.33° C | 42% | 1042.5 hPa | 0 mm | 3.58 m/s, 125° | - | - |
* Rain latest hour (hover to see other rain measurements)
** Current wind speed in m/s (hover to see current wind gust speed)